Flag for Germany Weather past 2 weeks in Straubing, Bavaria, Germany

Now
42 °F

Overcast.


Feels Like: 39 °F
Forecast: 34 / 44 °F
Wind: 5 mph from West

Location: Straubing

Current Time: Dec 21, 2014 at 4:10:45 PM

Latest Report: Dec 21, 2014 at 3:00 PM


Visibility: 34 mi

Pressure: 30.47 "Hg

Humidity: 76%

Dew point: 35 °F

Location of StraubingLocation

Historic Weather in Straubing — Graph

°F

Straubing temperature yesterday

Maximum temperature yesterday: 46 °F (at 12:00 AM)
Minimum temperature yesterday: 39 °F (at 6:00 AM)
Average temperature yesterday: 41 °F

Past Weeks' High & Low Weather Summary

 TemperatureHumidityPressure
High55 °F (Dec 19, 1:00 PM)100% (Dec 8, 11:00 PM)30.51 "Hg (Dec 8, 11:00 PM)
Low29 °F (Dec 10, 9:00 AM)57% (Dec 12, 2:00 PM)29.82 "Hg (Dec 12, 8:00 PM)
Average40 °F87%30.12 "Hg
* Reported Dec 6 3:00 PM — Dec 21 3:00 PM, Straubing, Weather by CustomWeather, © 2014

Note: Actual official high and low records may vary slightly from our data, if they occured in-between our weather recording intervals... More about our weather records

Advertising

Straubing weather history for previous 24 hours

 ConditionsComfort  
Time TempWeatherWind HumidityBarometerVisibility
3:00 PM
Dec 21
42 °FOvercast.5 mph76%30.47 "Hg34 mi
2:00 PM42 °FPassing clouds.6 mph77%30.47 "Hg31 mi
1:00 PM42 °FPartly sunny.7 mph77%30.49 "Hg25 mi
12:00 PM42 °FOvercast.7 mph81%30.50 "Hg22 mi
11:00 AM40 °FOvercast.5 mph84%30.51 "Hg22 mi
9:00 AM38 °FPartly sunny.6 mph86%30.50 "Hg19 mi
8:00 AM38 °FOvercast.7 mph88%30.48 "Hg19 mi
7:00 AM38 °FOvercast.8 mph85%30.46 "Hg19 mi
6:00 AM38 °FOvercast.7 mph85%30.44 "Hg28 mi
5:00 AM38 °FOvercast.6 mph83%30.42 "Hg31 mi
3:00 AM37 °FOvercast.6 mph90%30.36 "Hg37 mi
2:00 AM37 °FOvercast.6 mph90%30.33 "Hg43 mi
1:00 AM34 °FPassing clouds.5 mph96%30.32 "Hg43 mi
12:00 AM36 °FRain. Low clouds.9 mph92%30.31 "Hg1 mi
11:00 PM
Dec 20
40 °FOvercast.9 mph81%30.25 "Hg43 mi
9:00 PM39 °FOvercast.8 mph83%30.23 "Hg43 mi
8:00 PM39 °FOvercast.8 mph85%30.22 "Hg37 mi
7:00 PM41 °FLight rain. Haze.12 mph74%30.17 "Hg22 mi
6:00 PM42 °FOvercast.9 mph66%30.16 "Hg43 mi
5:00 PM42 °FOvercast.8 mph67%30.16 "Hg43 mi
4:00 PM41 °FOvercast.7 mph69%30.18 "Hg43 mi
Weather by CustomWeather, © 2014

See weather overviewHow to use our weather pages